Regional Weather Roundup
Issued by NWS

Home | Current Version | Previous Version | Text Only | Print | Product List | Glossary On
Versions: 1 2 3 4 5 6 7 8 9 10 11 12 13 14 15 16 17 18 19 20 21 22 23 24 25 26 27 28 29 30 31 32 33 34 35 36 37 38 39 40 41 42 43 44 45 46 47 48 49 50
000
ASCA42 TJSJ 230711
RWRPR
PUERTO RICO/U.S. VIRGIN ISLANDS HOURLY WEATHER ROUNDUP
NATIONAL WEATHER SERVICE SAN JUAN PR
300 AM AST SAT AUG 23 2014

PRZ001-004-230800-
PUERTO RICO

CITY           SKY/WX    TMP DP  RH WIND       PRES   REMARKS
SAN JUAN LMM   PTCLDY    79  75  89 NE7       29.85F
PONCE          RAIN      77  77 100 NE7       29.81
AGUADILLA      CLEAR     73  72  94 CALM      29.85F
CEIBA          MOCLDY    79  73  83 SE13      29.89F
$$

PRZ006-007-230800-
U.S. VIRGIN ISLANDS

CITY           SKY/WX    TMP DP  RH WIND       PRES   REMARKS
$$

HOURLY WEATHER ROUNDUP FOR THE NEWS MEDIA

CITY           SKY/WX    TMP DP  RH WIND       PRES   REMARKS
MIAMI          PTCLDY    80  71  74 E3        29.96F
ORLANDO        CLEAR     79  72  79 S5        29.98F
NEW YORK       MOCLDY    67  59  75 NE7       30.05S
NEWARK         MOCLDY    69  58  67 NE9       30.04F
CHICAGO        CLOUDY    76  70  82 N5        29.97R
HARTFORD       MOCLDY    64  61  90 N3        30.06F
BOSTON         CLOUDY    64  61  88 N7        30.09F
DALLAS         CLEAR     86  68  54 S14       29.96S
PHILADELPHIA   MOCLDY    67  62  84 E6        30.02F


USA.gov is the U.S. government's official web portal to all federal, state and local government web resources and services.